Regional Weather Roundup
Issued by NWS

Home | Current Version | Previous Version | Graphics & Text | Print | Product List | Glossary On
Versions: 1 2 3 4 5 6 7 8 9 10 11 12 13 14 15 16 17 18 19 20 21 22 23 24 25 26 27 28 29 30 31 32 33 34 35 36 37 38 39 40 41 42 43 44 45 46 47 48 49 50
000
ASUS43 KMKX 220200
RWRWI

WISCONSIN REGIONAL WEATHER ROUNDUP
NATIONAL WEATHER SERVICE MILWAUKEE/SULLIVAN WI
900 PM CDT MON JUL 21 2014

NOTE: "FAIR" INDICATES FEW OR NO CLOUDS BELOW 12,000 FEET WITH NO
SIGNIFICANT WEATHER AND/OR OBSTRUCTIONS TO VISIBILITY.

WIZ001-002-006>008-014>016-023>028-220300-
NORTHWEST WISCONSIN

CITY           SKY/WX    TMP DP  RH WIND       PRES   REMARKS
SUPERIOR ARPT  MOCLDY    82  74  77 S6        29.80F HX  89
ASHLAND        PTCLDY    80  72  76 S6        29.87F HX  84
HAYWARD        CLOUDY    80  73  79 S7        29.89F HX  84
SIREN          MOCLDY    82  72  71 SE12      29.84F HX  87
RICE LAKE      CLOUDY    82  71  70 SE12      29.91F HX  85
LADYSMITH      CLEAR     80  71  74 S3        29.94F HX  84
EAU CLAIRE     NOT AVBL
MENOMONIE      CLOUDY    82  70  67 SE12G17   29.89F HX  86
NEW RICHMOND   MOCLDY    82  71  70 SE9       29.87F HX  86
OSCEOLA        CLOUDY    83  73  73 SE12      29.87F HX  89
$$

WIZ003>005-009-010-017-018-220300-
NORTH CENTRAL WISCONSIN

CITY           SKY/WX    TMP DP  RH WIND       PRES   REMARKS
WOODRUFF       CLEAR     78  72  80 S7        29.96F HX  81
RHINELANDER    CLEAR     75  70  84 SE6       29.99F
EAGLE RIVER    CLEAR     76  68  74 S3        29.97F
LAND O LAKES   CLEAR     77  69  77 S5        29.98F
PHILLIPS       MOCLDY    78  72  81 S5        29.95S HX  80
TOMAHAWK       CLEAR     75  69  80 CALM      29.97F
MEDFORD        CLEAR     75  70  84 S7        29.97S
MERRILL        CLEAR     78  72  82 S5        29.97F
$$

WIZ029-030-035-036-043>047-220300-
CENTRAL WISCONSIN

CITY           SKY/WX    TMP DP  RH WIND       PRES   REMARKS
WAUSAU         CLEAR     79  69  71 S8        29.96F HX  81
MOSINEE        PTCLDY    75  70  83 SE6       29.99F
MARSHFIELD     CLEAR     74  69  85 S6        29.97S
STEVENS POINT  CLEAR     78  66  67 S6        29.98F HX  80
WAUPACA        CLEAR     80  68  65 S6        29.99S HX  83
WAUTOMA        NOT AVBL
WISC RAPIDS    CLEAR     80  66  62 S6        29.99S HX  82
CAMP DOUGLAS   NOT AVBL
$$

WIZ011>013-019>022-031-037>040-048>050-220300-
NORTHEAST WISCONSIN

CITY           SKY/WX    TMP DP  RH WIND       PRES   REMARKS
ANTIGO         CLOUDY    74  70  87 S7        30.01S
STURGEON BAY   MOCLDY    70  61  73 S10       30.03R
GREEN BAY      CLEAR     77  67  71 S9        30.00S
MANITOWOC      NOT AVBL
APPLETON       PTCLDY    79  64  61 S8        30.01S HX  81
CLINTONVILLE   CLEAR     77  68  73 S6        29.98S
OSHKOSH        CLEAR     76  69  79 S6        30.00S
$$

WIZ032>034-041-042-053>061-220300-
SOUTHWEST WISCONSIN

CITY           SKY/WX    TMP DP  RH WIND       PRES   REMARKS
LA CROSSE      MOCLDY    83  68  60 S8        29.93R HX  86
SPARTA         CLEAR     79  66  63 S5        29.96R HX  81
VIROQUA        FAIR      77  68  72 S7        29.98R
BOSCOBEL       CLEAR     81  68  64 VRB5      29.97R HX  84
PRAIRIE DU CHI CLEAR     81  66  61 SE6       29.95S HX  83
PLATTEVILLE    FAIR      77  70  78 SE8       30.00F
$$

WIZ056-057-062-063-064-067-068-220300-
SOUTH CENTRAL WISCONSIN

CITY           SKY/WX    TMP DP  RH WIND       PRES   REMARKS
BARABOO/DELLS  CLEAR     78  66  65 S7        29.99S HX  80
LONE ROCK      NOT AVBL
WATERTOWN      CLEAR     76  69  76 SE5       30.02S
MADISON        CLEAR     80  68  66 S12       30.01R HX  83
MIDDLETON      FAIR      80  67  63 S9        30.01S HX  83
MONROE         CLEAR     77  68  73 S12       30.02S
JANESVILLE     CLEAR     81  66  61 S10       30.02S HX  83
$$

WIZ051-052-058>065-066-070>072-220300-
SOUTHEAST WISCONSIN

CITY           SKY/WX    TMP DP  RH WIND       PRES   REMARKS
MILWAUKEE      PTCLDY    76  63  64 S9        30.04S
WAUKESHA       CLEAR     75  64  69 S5        30.05S
MILWAUKEE/TIMM CLEAR     79  61  53 S6        30.04S HX  80
RACINE         CLEAR     76  64  66 S9        30.06S
BURLINGTON     CLEAR     73  66  78 S5        30.04F
KENOSHA        CLEAR     74  65  73 S7        30.05F
FOND DU LAC    CLEAR     76  67  73 S8        30.01S
SHEBOYGAN      MOCLDY    73  62  68 S10       30.03S
WEST BEND      CLEAR     77  63  61 CALM      30.03S
JUNEAU         CLEAR     76  53  44 SE7       30.04R
$$

LSZ147-162-220300-
LAKE SUPERIOR

STATION/POSITION TIME  TEMP    WIND        PRES    WAVE
                       AIR SEA DIR/SP/G            HT/PER
                 (UTC) (F)     (DEG/KT/KT) (MB)    (FT/S)
W MID LAKE BUOY  0050   53 43  140/  8/  8 1011.6S   0
PORT WING        0100   85     180/  7/ 10 1010.5
SAXON HARBOR     0100           CALM  /  9 1011.2F
$$

LMZ867-665-643>646-220300-
LAKE MICHIGAN

STATION/POSITION TIME  TEMP    WIND        PRES    WAVE
                       AIR SEA DIR/SP/G            HT/PER
                 (UTC) (F)     (DEG/KT/KT) (MB)    (FT/S)
N MID LAKE BUOY  0050   64 58  220/ 16/ 19 1015.4F   3/ 5
NORTHPORT PIER   0100   70     180/  7/ 13 1015.9S
KEWAUNEE LAKESHO 0100   59     170/ 10/ 12 1017.3F
SHEBOYGAN LAKESH 0100   71     180/ 15/ 16 1016.8F
PORT WASHINGTON  0100   66     200/  7/ 11 1017.6S
ATWATER BUOY     0100   62     170/ 10     1018.0F
MILWAUKEE LAKESH 0100   62     180/  4/  7   N/A
S MID LAKE BUOY  0050   72 70  160/  8/ 10 1017.6F   0
KENOSHA   LAKESH 0100   74     170/ 13/ 15   N/A
$$

TC  - TEMPERATURE IN CELSIUS
VSB - VISIBILITY IN STATUTE MILES
WCI - WIND CHILL INDEX
HX  - HEAT INDEX




USA.gov is the U.S. government's official web portal to all federal, state and local government web resources and services.